Time,TemperatureF,DewpointF,PressureIn,WindDirection,WindDirectionDegrees,WindSpeedMPH,WindSpeedGustMPH,Humidity,HourlyPrecipIn,Conditions,Clouds,dailyrainin,SolarRadiationWatts/m^2,SoftwareType,DateUTC
2013-09-10 00:01:00,77.0,35.0,-100.00,WSW,257,13.0,19.0,22,0.00,,,0.00,0.000000,,2013-09-10 07:01:00,
2013-09-10 00:12:00,77.0,35.0,-100.00,WSW,257,13.0,19.0,22,0.00,,,0.00,0.000000,,2013-09-10 07:12:00,
2013-09-10 00:21:00,77.0,35.0,-100.00,WSW,257,13.0,19.0,22,0.00,,,0.00,0.000000,,2013-09-10 07:21:00,
2013-09-10 00:52:00,77.0,34.0,-100.00,WSW,256,13.0,20.0,21,0.00,,,0.00,0.000000,,2013-09-10 07:52:00,
2013-09-10 01:02:00,77.0,34.0,-100.00,WSW,256,13.0,20.0,21,0.00,,,0.00,0.000000,,2013-09-10 08:02:00,
2013-09-10 01:11:00,77.0,34.0,-100.00,WSW,256,13.0,20.0,21,0.00,,,0.00,0.000000,,2013-09-10 08:11:00,
2013-09-10 01:22:00,77.0,34.0,-100.00,WSW,256,13.0,20.0,21,0.00,,,0.00,0.000000,,2013-09-10 08:22:00,
2013-09-10 01:52:00,77.0,35.0,-100.00,WSW,257,13.0,21.0,22,0.00,,,0.00,0.000000,,2013-09-10 08:52:00,
2013-09-10 02:02:00,77.0,35.0,-100.00,WSW,257,13.0,21.0,22,0.00,,,0.00,0.000000,,2013-09-10 09:02:00,
2013-09-10 02:11:00,77.0,35.0,-100.00,WSW,257,13.0,21.0,22,0.00,,,0.00,0.000000,,2013-09-10 09:11:00,
2013-09-10 02:21:00,77.0,35.0,-100.00,WSW,257,13.0,21.0,22,0.00,,,0.00,0.000000,,2013-09-10 09:21:00,
2013-09-10 02:54:00,76.0,37.0,-100.00,WSW,257,13.0,20.0,24,0.00,,,0.00,0.000000,,2013-09-10 09:54:00,
2013-09-10 03:03:00,76.0,37.0,-100.00,WSW,257,13.0,20.0,24,0.00,,,0.00,0.000000,,2013-09-10 10:03:00,
2013-09-10 03:13:00,76.0,37.0,-100.00,WSW,257,13.0,20.0,24,0.00,,,0.00,0.000000,,2013-09-10 10:13:00,
2013-09-10 03:23:00,76.0,37.0,-100.00,WSW,257,13.0,20.0,24,0.00,,,0.00,0.000000,,2013-09-10 10:23:00,
2013-09-10 03:53:00,76.0,37.0,-100.00,West,259,13.0,20.0,24,0.00,,,0.00,0.000000,,2013-09-10 10:53:00,
2013-09-10 04:03:00,76.0,37.0,-100.00,West,259,13.0,20.0,24,0.00,,,0.00,0.000000,,2013-09-10 11:03:00,
2013-09-10 04:12:00,76.0,37.0,-100.00,West,259,13.0,20.0,24,0.00,,,0.00,0.000000,,2013-09-10 11:12:00,
2013-09-10 04:22:00,76.0,37.0,-100.00,West,259,13.0,20.0,24,0.00,,,0.00,0.000000,,2013-09-10 11:22:00,
2013-09-10 07:21:00,69.0,41.0,-100.00,WSW,248,11.0,18.0,36,-99.99,,,0.00,0.000000,,2013-09-10 14:21:00,
2013-09-10 07:52:00,71.0,43.0,-100.00,WSW,256,12.0,17.0,37,-99.99,,,0.00,18.000000,,2013-09-10 14:52:00,
2013-09-10 08:02:00,71.0,43.0,-100.00,WSW,256,12.0,17.0,37,-99.99,,,0.00,18.000000,,2013-09-10 15:02:00,
2013-09-10 08:11:00,71.0,43.0,-100.00,WSW,256,12.0,17.0,37,-99.99,,,0.00,18.000000,,2013-09-10 15:11:00,
2013-09-10 08:22:00,71.0,43.0,-100.00,WSW,256,12.0,17.0,37,-99.99,,,0.00,18.000000,,2013-09-10 15:22:00,
2013-09-10 08:54:00,71.0,44.0,-100.00,West,259,12.0,18.0,38,0.00,,,-99.99,127.000000,,2013-09-10 15:54:00,
2013-09-10 09:03:00,71.0,44.0,-100.00,West,259,12.0,18.0,38,0.00,,,-99.99,127.000000,,2013-09-10 16:03:00,
2013-09-10 09:12:00,71.0,44.0,-100.00,West,259,12.0,18.0,38,0.00,,,-99.99,127.000000,,2013-09-10 16:12:00,
2013-09-10 09:23:00,71.0,44.0,-100.00,West,259,12.0,18.0,38,0.00,,,-99.99,127.000000,,2013-09-10 16:23:00,
2013-09-10 09:53:00,72.0,46.0,-100.00,WSW,245,11.0,17.0,39,-99.99,,,0.00,328.000000,,2013-09-10 16:53:00,
2013-09-10 10:03:00,72.0,46.0,-100.00,WSW,245,11.0,17.0,39,-99.99,,,0.00,328.000000,,2013-09-10 17:03:00,
2013-09-10 10:12:00,72.0,46.0,-100.00,WSW,245,11.0,17.0,39,-99.99,,,0.00,328.000000,,2013-09-10 17:12:00,
2013-09-10 10:23:00,72.0,46.0,-100.00,WSW,245,11.0,17.0,39,-99.99,,,0.00,328.000000,,2013-09-10 17:23:00,
2013-09-10 10:52:00,73.0,51.0,-100.00,WSW,250,10.0,16.0,46,0.00,,,0.00,502.000000,,2013-09-10 17:52:00,
2013-09-10 11:02:00,73.0,51.0,-100.00,WSW,250,10.0,16.0,46,0.00,,,0.00,502.000000,,2013-09-10 18:02:00,
2013-09-10 11:12:00,73.0,51.0,-100.00,WSW,250,10.0,16.0,46,0.00,,,0.00,502.000000,,2013-09-10 18:12:00,
2013-09-10 11:21:00,73.0,51.0,-100.00,WSW,250,10.0,16.0,46,0.00,,,0.00,502.000000,,2013-09-10 18:21:00,
2013-09-10 11:52:00,74.0,54.0,-100.00,West,265,10.0,15.0,49,0.00,,,0.00,646.000000,,2013-09-10 18:52:00,
2013-09-10 12:02:00,74.0,54.0,-100.00,West,265,10.0,15.0,49,0.00,,,0.00,646.000000,,2013-09-10 19:02:00,
2013-09-10 12:11:00,74.0,54.0,-100.00,West,265,10.0,15.0,49,0.00,,,0.00,646.000000,,2013-09-10 19:11:00,
2013-09-10 12:21:00,74.0,54.0,-100.00,West,265,10.0,15.0,49,0.00,,,0.00,646.000000,,2013-09-10 19:21:00,
2013-09-10 12:52:00,74.0,54.0,-100.00,West,270,17.0,21.0,50,0.00,,,0.00,742.000000,,2013-09-10 19:52:00,
2013-09-10 13:02:00,74.0,54.0,-100.00,West,270,17.0,21.0,50,0.00,,,0.00,742.000000,,2013-09-10 20:02:00,
2013-09-10 13:11:00,74.0,54.0,-100.00,West,270,17.0,21.0,50,0.00,,,0.00,742.000000,,2013-09-10 20:11:00,
2013-09-10 13:21:00,74.0,54.0,-100.00,West,270,17.0,21.0,50,0.00,,,0.00,742.000000,,2013-09-10 20:21:00,
2013-09-10 13:52:00,75.0,53.0,-100.00,West,268,19.0,24.0,47,0.00,,,0.00,777.000000,,2013-09-10 20:52:00,
2013-09-10 14:02:00,75.0,53.0,-100.00,West,268,19.0,24.0,47,0.00,,,0.00,777.000000,,2013-09-10 21:02:00,
2013-09-10 14:11:00,75.0,53.0,-100.00,West,268,19.0,24.0,47,0.00,,,0.00,777.000000,,2013-09-10 21:11:00,
2013-09-10 14:22:00,75.0,53.0,-100.00,West,268,19.0,24.0,47,0.00,,,0.00,777.000000,,2013-09-10 21:22:00,
2013-09-10 14:54:00,74.0,52.0,-100.00,West,269,23.0,29.0,47,0.00,,,0.00,759.000000,,2013-09-10 21:54:00,
2013-09-10 15:04:00,74.0,52.0,-100.00,West,269,23.0,29.0,47,0.00,,,0.00,759.000000,,2013-09-10 22:04:00,
2013-09-10 15:13:00,74.0,52.0,-100.00,West,269,23.0,29.0,47,0.00,,,0.00,759.000000,,2013-09-10 22:13:00,
2013-09-10 15:24:00,74.0,52.0,-100.00,West,269,23.0,29.0,47,0.00,,,0.00,759.000000,,2013-09-10 22:24:00,
2013-09-10 15:54:00,72.0,53.0,-100.00,West,268,26.0,30.0,52,0.00,,,0.00,679.000000,,2013-09-10 22:54:00,
2013-09-10 16:03:00,72.0,53.0,-100.00,West,268,26.0,30.0,52,0.00,,,0.00,679.000000,,2013-09-10 23:03:00,
2013-09-10 16:13:00,72.0,53.0,-100.00,West,268,26.0,30.0,52,0.00,,,0.00,679.000000,,2013-09-10 23:13:00,
2013-09-10 16:22:00,72.0,53.0,-100.00,West,268,26.0,30.0,52,0.00,,,0.00,679.000000,,2013-09-10 23:22:00,
2013-09-10 16:53:00,69.0,54.0,-100.00,West,269,25.0,32.0,58,0.00,,,0.00,553.000000,,2013-09-10 23:53:00,
2013-09-10 17:02:00,69.0,54.0,-100.00,West,269,25.0,32.0,58,0.00,,,0.00,553.000000,,2013-09-11 00:02:00,
2013-09-10 17:11:00,69.0,54.0,-100.00,West,269,25.0,32.0,58,0.00,,,0.00,553.000000,,2013-09-11 00:11:00,
2013-09-10 17:22:00,69.0,54.0,-100.00,West,269,25.0,32.0,58,0.00,,,0.00,553.000000,,2013-09-11 00:22:00,
2013-09-10 17:52:00,65.0,54.0,-100.00,West,268,26.0,32.0,68,0.00,,,0.00,396.000000,,2013-09-11 00:52:00,
2013-09-10 18:02:00,65.0,54.0,-100.00,West,268,26.0,32.0,68,0.00,,,0.00,396.000000,,2013-09-11 01:02:00,
2013-09-10 18:11:00,65.0,54.0,-100.00,West,268,26.0,32.0,68,0.00,,,0.00,396.000000,,2013-09-11 01:11:00,
2013-09-10 18:21:00,65.0,54.0,-100.00,West,268,26.0,32.0,68,0.00,,,0.00,396.000000,,2013-09-11 01:21:00,
2013-09-10 18:53:00,62.0,55.0,-100.00,West,267,24.0,31.0,78,0.00,,,0.00,211.000000,,2013-09-11 01:53:00,
2013-09-10 19:02:00,62.0,55.0,-100.00,West,267,24.0,31.0,78,0.00,,,0.00,211.000000,,2013-09-11 02:02:00,
2013-09-10 19:11:00,62.0,55.0,-100.00,West,267,24.0,31.0,78,0.00,,,0.00,211.000000,,2013-09-11 02:11:00,
2013-09-10 19:22:00,62.0,55.0,-100.00,West,267,24.0,31.0,78,0.00,,,0.00,211.000000,,2013-09-11 02:22:00,
2013-09-10 19:52:00,58.0,54.0,-100.00,West,265,22.0,30.0,88,0.00,,,0.00,48.000000,,2013-09-11 02:52:00,
2013-09-10 20:02:00,58.0,54.0,-100.00,West,265,22.0,30.0,88,0.00,,,0.00,48.000000,,2013-09-11 03:02:00,
2013-09-10 20:12:00,58.0,54.0,-100.00,West,265,22.0,30.0,88,0.00,,,0.00,48.000000,,2013-09-11 03:12:00,
2013-09-10 20:22:00,58.0,54.0,-100.00,West,265,22.0,30.0,88,0.00,,,0.00,48.000000,,2013-09-11 03:22:00,
2013-09-10 20:54:00,57.0,56.0,-100.00,West,262,22.0,28.0,96,0.00,,,0.00,0.000000,,2013-09-11 03:54:00,
2013-09-10 21:04:00,57.0,56.0,-100.00,West,262,22.0,28.0,96,0.00,,,0.00,0.000000,,2013-09-11 04:04:00,
2013-09-10 21:14:00,57.0,56.0,-100.00,West,262,22.0,28.0,96,0.00,,,0.00,0.000000,,2013-09-11 04:14:00,
2013-09-10 21:24:00,57.0,56.0,-100.00,West,262,22.0,28.0,96,0.00,,,0.00,0.000000,,2013-09-11 04:24:00,
2013-09-10 21:54:00,57.0,56.0,-100.00,West,265,26.0,32.0,98,0.00,,,0.00,0.000000,,2013-09-11 04:54:00,
2013-09-10 22:03:00,57.0,56.0,-100.00,West,265,26.0,32.0,98,0.00,,,0.00,0.000000,,2013-09-11 05:03:00,
2013-09-10 22:12:00,57.0,56.0,-100.00,West,265,26.0,32.0,98,0.00,,,0.00,0.000000,,2013-09-11 05:12:00,
2013-09-10 22:22:00,57.0,56.0,-100.00,West,265,26.0,32.0,98,0.00,,,0.00,0.000000,,2013-09-11 05:22:00,
2013-09-10 22:53:00,56.0,56.0,-100.00,West,261,24.0,32.0,100,0.00,,,0.00,0.000000,,2013-09-11 05:53:00,
2013-09-10 23:02:00,56.0,56.0,-100.00,West,261,24.0,32.0,100,0.00,,,0.00,0.000000,,2013-09-11 06:02:00,
2013-09-10 23:12:00,56.0,56.0,-100.00,West,261,24.0,32.0,100,0.00,,,0.00,0.000000,,2013-09-11 06:12:00,
2013-09-10 23:21:00,56.0,56.0,-100.00,West,261,24.0,32.0,100,0.00,,,0.00,0.000000,,2013-09-11 06:21:00,
2013-09-10 23:52:00,56.0,56.0,-100.00,West,266,26.0,32.0,100,0.00,,,0.00,0.000000,,2013-09-11 06:52:00,